Terug naar catalogus

STARLINK-30279

ActiefCommunicatieVLEO
NORAD 57885·PAYLOAD·🇺🇸 United States

Gelanceerd Sep 16, 2023 vanaf Cape Canaveral Space Force Station

Loading…

Volgende Passages (komende 24 uur)

TLE

VersSource: CelesTrak SupGP

Epoch: Sep 14, 2026, 21:38 UTC

1 57885C 23144X   26257.90187500 -.00004372  00000+0 -15838-3 0  2571
2 57885  43.0008 296.2993 0001525 265.8726 282.2972 15.27573823    15

Volg STARLINK-30279 in realtime met AllMySat

Download on the App Store